NOAA 16 DEB, 41360

Orbit data source: Space-Track

NOAA 16 DEB, 41360 is space debris in SSO originally from a launch on Thu, 21 Sep 2000 UTC launched from the Air Force Western Test Range (AFWTR). Debris objects in space refer to the collection of defunct objects orbiting the Earth. Examples of debris include non-operational satellites, rocket bodies, and fragments generated from explosions, collisions, or faulty payload assembly.

Loading next visibility...
Identifier
41360, 2000-055JD
Orbit
SSO
Country
Flag of USUS
Related business
Manufacturer
Unknown
Mission
Spacecraft
Bus & Motor
Unknown
Mass
Unknown
Launch date (UTC)
2000-09-21 (26 years ago)
Launch vehicle
Unknown
Launch site
Air Force Western Test Range (AFWTR)
Object type
Payload
Rocket body
Debris
Shape & HBR
Unknown shape, 0.1 m
Radar Cross Section
Medium (>0.1 m² and <1 m²)

Expand to show TLE details & history
Last TLE update: 2 days ago

TLE from 2 days ago
0 NOAA 16 DEB
1 41360U 00055JD  26171.19394436  .00003086  00000-0  11373-2 0  9994
2 41360  98.8990 297.6848 0021106   5.7482 354.3940 14.33188461537663
Epoch: 2026-06-20T04:39Z
TLE epoch observation values (Epoch: 2026-06-20T04:39:16.792Z)
Latitude
0.00001°
Longitude
-40.54724°
Altitude
768.978 km
Speed
7.478 km/s
True Right ascension
19h 50m 44s
True Declination
0° 00' 00"
Sunlit
Object was in full shadow at epoch
Visualization orbit readout
Latitude
Unknown
Longitude
Unknown
Altitude
Unknown
Speed
Unknown
Apparent Right ascension
Unknown
Apparent Declination
Unknown
Sunlit
N/A
Visualization observer readout
Local Sidereal Time
21:35:55
Azimuth
Unknown
Elevation
Unknown
Doppler factor
Unknown
Orbital elements
Apogee altitude
793.347 km
Perigee altitude
763.139 km
Semi-major axis
7,156.38 km
Eccentricity
0.00211
Inclination
98.899°
RAAN
297.6848°
Arg. of periapsis
5.7482°
True anomaly
354.37031°
Mean anomaly
354.394°
Eccentric anomaly
354.38216°
Mean motion
3.58511 °/min
Orbital period
100.42 mins
BSTAR
0.0011373
Loading maneuver chart data...
Computing Atmospheric mass density...
Loading historical data...
Loading historical data...
Loading historical data...
Loading historical data...
Loading historical data...
Loading historical data...
Loading historical data...

Documentation

Showing up to 5 results
|